When you browse on this site, cookies collect data to enhance your experience and personalize the content and advertising you see.
Visit our Privacy Policy to learn more. By continuing to use the site, you agree to this use of cookies and data.
  • In Switzerland
  • List of Countries
  • For 7 days
  • Water Temperature
  • Weather Map
  • Weather Widgets
  • user-avatar
    Login

    Hourly Weather Ghanzi

    Today, 29 May, Friday

    Time Temperature Precipitation Wind Pressure Humidity
    00:00 +30°C° 0 mm 4 mps 715 mmHg 19%
    01:00 +29°C° 0 mm 4 mps 715 mmHg 20%
    02:00 +28°C° 0 mm 4 mps 715 mmHg 21%
    03:00 +28°C° 0 mm 4 mps 715 mmHg 22%
    04:00 +27°C° 0 mm 4 mps 714 mmHg 23%
    05:00 +28°C° 0 mm 5 mps 715 mmHg 21%
    06:00 +30°C° 0 mm 6 mps 716 mmHg 19%
    07:00 +32°C° 0 mm 7 mps 717 mmHg 17%
    08:00 +34°C° 0 mm 7 mps 717 mmHg 15%
    09:00 +36°C° 0 mm 7 mps 717 mmHg 13%
    10:00 +39°C° 0 mm 6 mps 717 mmHg 11%
    11:00 +40°C° 0 mm 5 mps 717 mmHg 11%
    12:00 +40°C° 0 mm 4 mps 716 mmHg 11%
    13:00 +40°C° 0 mm 3 mps 716 mmHg 10%
    14:00 +40°C° 0 mm 2 mps 715 mmHg 10%
    15:00 +40°C° 0 mm 2 mps 715 mmHg 10%
    16:00 +40°C° 0 mm 1 mps 714 mmHg 10%
    17:00 +39°C° 0 mm 2 mps 714 mmHg 12%
    18:00 +37°C° 0 mm 2 mps 714 mmHg 13%
    19:00 +35°C° 0 mm 3 mps 714 mmHg 14%
    20:00 +34°C° 0 mm 3 mps 714 mmHg 15%
    21:00 +34°C° 0 mm 3 mps 714 mmHg 16%
    22:00 +33°C° 0 mm 3 mps 714 mmHg 16%
    23:00 +31°C° 0 mm 3 mps 714 mmHg 17%

    Tomorrow, 30 May, Saturday

    Time Temperature Precipitation Wind Pressure Humidity
    00:00 +30°C° 0 mm 3 mps 714 mmHg 18%
    01:00 +29°C° 0 mm 4 mps 714 mmHg 19%
    02:00 +28°C° 0 mm 3 mps 714 mmHg 21%
    03:00 +28°C° 0 mm 3 mps 714 mmHg 23%
    04:00 +27°C° 0 mm 3 mps 714 mmHg 25%
    05:00 +28°C° 0 mm 3 mps 715 mmHg 23%
    06:00 +30°C° 0 mm 4 mps 716 mmHg 21%
    07:00 +32°C° 0 mm 5 mps 716 mmHg 19%
    08:00 +34°C° 0 mm 6 mps 716 mmHg 17%
    09:00 +36°C° 0 mm 6 mps 717 mmHg 15%
    10:00 +39°C° 0 mm 7 mps 717 mmHg 13%
    11:00 +40°C° 0 mm 6 mps 717 mmHg 12%
    12:00 +41°C° 0 mm 4 mps 716 mmHg 11%
    13:00 +42°C° 0 mm 3 mps 716 mmHg 11%
    14:00 +42°C° 0 mm 3 mps 715 mmHg 11%
    15:00 +41°C° 0 mm 2 mps 714 mmHg 11%
    16:00 +41°C° 0 mm 1 mps 714 mmHg 11%
    17:00 +39°C° 0 mm 1 mps 714 mmHg 12%
    18:00 +37°C° 0 mm 2 mps 714 mmHg 13%
    19:00 +35°C° 0 mm 2 mps 714 mmHg 15%
    20:00 +35°C° 0 mm 3 mps 714 mmHg 15%
    21:00 +35°C° 0 mm 3 mps 714 mmHg 16%
    22:00 +34°C° 0 mm 4 mps 715 mmHg 16%
    23:00 +33°C° 0 mm 4 mps 714 mmHg 17%

    Day after tomorrow, 31 May, Sunday

    Time Temperature Precipitation Wind Pressure Humidity
    00:00 +32°C° 0 mm 4 mps 714 mmHg 19%
    01:00 +30°C° 0 mm 4 mps 713 mmHg 20%
    02:00 +30°C° 0 mm 3 mps 714 mmHg 21%
    03:00 +29°C° 0 mm 3 mps 714 mmHg 22%
    04:00 +28°C° 0 mm 3 mps 714 mmHg 23%
    05:00 +29°C° 0 mm 4 mps 714 mmHg 21%
    06:00 +32°C° 0 mm 4 mps 715 mmHg 19%
    07:00 +33°C° 0 mm 5 mps 715 mmHg 17%
    08:00 +36°C° 0 mm 5 mps 716 mmHg 15%
    09:00 +39°C° 0 mm 6 mps 716 mmHg 13%
    10:00 +41°C° 0 mm 6 mps 717 mmHg 11%
    11:00 +42°C° 0 mm 6 mps 716 mmHg 11%
    12:00 +43°C° 0 mm 5 mps 715 mmHg 10%
    13:00 +44°C° 0 mm 4 mps 715 mmHg 9%
    14:00 +44°C° 0 mm 4 mps 714 mmHg 9%
    15:00 +44°C° 0 mm 3 mps 714 mmHg 9%
    16:00 +44°C° 0 mm 3 mps 713 mmHg 9%
    17:00 +41°C° 0 mm 2 mps 713 mmHg 10%
    18:00 +39°C° 0 mm 2 mps 713 mmHg 12%
    19:00 +37°C° 0 mm 2 mps 713 mmHg 13%
    20:00 +37°C° 0 mm 2 mps 713 mmHg 13%
    21:00 +36°C° 0 mm 3 mps 714 mmHg 14%
    22:00 +36°C° 0 mm 3 mps 714 mmHg 14%
    23:00 +35°C° 0 mm 3 mps 714 mmHg 16%

    1 June, Monday

    Time Temperature Precipitation Wind Pressure Humidity
    00:00 +34°C° 0 mm 3 mps 713 mmHg 17%
    01:00 +34°C° 0 mm 3 mps 713 mmHg 18%
    02:00 +33°C° 0 mm 3 mps 713 mmHg 19%
    03:00 +31°C° 0 mm 2 mps 713 mmHg 21%
    04:00 +30°C° 0 mm 2 mps 713 mmHg 23%
    05:00 +32°C° 0 mm 2 mps 714 mmHg 20%
    06:00 +35°C° 0 mm 3 mps 714 mmHg 18%
    07:00 +36°C° 0 mm 3 mps 715 mmHg 16%
    08:00 +38°C° 0 mm 3 mps 715 mmHg 14%
    09:00 +40°C° 0 mm 3 mps 715 mmHg 12%
    10:00 +43°C° 0 mm 3 mps 715 mmHg 11%
    11:00 +44°C° 0 mm 3 mps 714 mmHg 10%
    12:00 +45°C° 0 mm 3 mps 714 mmHg 9%
    13:00 +46°C° 0 mm 3 mps 713 mmHg 8%
    14:00 +47°C° 0 mm 4 mps 713 mmHg 8%
    15:00 +47°C° 0 mm 4 mps 712 mmHg 8%
    16:00 +47°C° 0 mm 5 mps 712 mmHg 8%
    17:00 +44°C° 0 mm 4 mps 712 mmHg 9%
    18:00 +42°C° 0 mm 4 mps 712 mmHg 10%
    19:00 +40°C° 0 mm 3 mps 712 mmHg 11%
    20:00 +40°C° 0 mm 4 mps 712 mmHg 12%
    21:00 +39°C° 0 mm 5 mps 712 mmHg 12%
    22:00 +39°C° 0 mm 6 mps 713 mmHg 12%
    23:00 +36°C° 0 mm 6 mps 712 mmHg 14%

    2 June, Tuesday

    Time Temperature Precipitation Wind Pressure Humidity
    00:00 +34°C° 0 mm 5 mps 712 mmHg 15%
    01:00 +33°C° 0 mm 4 mps 712 mmHg 17%
    02:00 +32°C° 0 mm 4 mps 712 mmHg 18%
    03:00 +30°C° 0 mm 4 mps 712 mmHg 20%
    04:00 +30°C° 0 mm 4 mps 712 mmHg 21%
    05:00 +32°C° 0 mm 5 mps 713 mmHg 20%
    06:00 +33°C° 0 mm 5 mps 713 mmHg 19%
    07:00 +33°C° 0 mm 6 mps 714 mmHg 18%
    08:00 +36°C° 0 mm 6 mps 714 mmHg 16%
    09:00 +39°C° 0 mm 6 mps 714 mmHg 13%
    10:00 +42°C° 0 mm 5 mps 714 mmHg 11%
    11:00 +43°C° 0 mm 5 mps 714 mmHg 10%
    12:00 +44°C° 0 mm 4 mps 713 mmHg 9%
    13:00 +45°C° 0 mm 3 mps 713 mmHg 8%
    14:00 +45°C° 0 mm 3 mps 712 mmHg 8%
    15:00 +45°C° 0 mm 3 mps 711 mmHg 8%
    16:00 +45°C° 0 mm 3 mps 711 mmHg 8%
    17:00 +43°C° 0 mm 3 mps 711 mmHg 9%
    18:00 +40°C° 0 mm 3 mps 711 mmHg 10%
    19:00 +38°C° 0 mm 3 mps 711 mmHg 12%
    20:00 +37°C° 0 mm 3 mps 711 mmHg 13%
    21:00 +36°C° 0 mm 3 mps 711 mmHg 14%
    22:00 +35°C° 0 mm 3 mps 712 mmHg 15%
    23:00 +34°C° 0 mm 3 mps 711 mmHg 15%

    3 June, Wednesday

    Time Temperature Precipitation Wind Pressure Humidity
    00:00 +34°C° 0 mm 3 mps 710 mmHg 16%
    01:00 +32°C° 0 mm 2 mps 710 mmHg 16%
    02:00 +31°C° 0 mm 2 mps 710 mmHg 17%
    03:00 +30°C° 0 mm 2 mps 710 mmHg 18%
    04:00 +29°C° 0 mm 2 mps 710 mmHg 19%
    05:00 +31°C° 0 mm 3 mps 710 mmHg 17%
    06:00 +34°C° 0 mm 3 mps 711 mmHg 15%
    07:00 +36°C° 0 mm 4 mps 711 mmHg 13%
    08:00 +38°C° 0 mm 4 mps 712 mmHg 11%
    09:00 +42°C° 0 mm 5 mps 712 mmHg 10%
    10:00 +45°C° 0 mm 5 mps 712 mmHg 8%
    11:00 +46°C° 0 mm 5 mps 711 mmHg 8%
    12:00 +47°C° 0 mm 4 mps 711 mmHg 7%
    13:00 +47°C° 0 mm 3 mps 710 mmHg 7%
    14:00 +48°C° 0 mm 4 mps 710 mmHg 7%
    15:00 +48°C° 0 mm 4 mps 709 mmHg 7%
    16:00 +48°C° 0 mm 4 mps 709 mmHg 7%
    17:00 +45°C° 0 mm 4 mps 709 mmHg 8%
    18:00 +43°C° 0 mm 4 mps 709 mmHg 9%
    19:00 +41°C° 0 mm 4 mps 709 mmHg 10%
    20:00 +40°C° 0 mm 6 mps 710 mmHg 12%
    21:00 +39°C° 0 mm 8 mps 711 mmHg 14%
    22:00 +37°C° 0 mm 10 mps 711 mmHg 15%
    23:00 +35°C° 0 mm 9 mps 711 mmHg 18%
    Show more